Terug naar catalogus

STARLINK-30713

ActiefCommunicatieVLEO
NORAD 57952·PAYLOAD·🇺🇸 United States

Gelanceerd Sep 25, 2023 vanaf Vandenberg Space Force Base

Loading…

Volgende Passages (komende 24 uur)

TLE

VersSource: CelesTrak SupGP

Epoch: Sep 15, 2026, 02:51 UTC

1 57952C 23148T   26258.11923611 -.00065049  00000+0 -19217-2 0  2588
2 57952  53.1575 220.9861 0001280  94.1955 245.9590 15.34425116    15

Volg STARLINK-30713 in realtime met AllMySat

Download on the App Store